User: anonymous   Login
Location: Unspecified
(0.0000°N, 0.0000°E)
Time: 16:55:16
(UTC+01:00)
Language:

ATLAS 2AS CENTAUR R/B - Orbit

View from above orbital plane
View from above orbital plane
View from above satellite
View from above satellite

Ground track
Ground track

The orbit data is extracted from the following two-line orbital elements,

1 28096U 03054B   14292.12063037 0.00000000  00000-0  00000-0 0    00
2 28096  63.6680 354.6272 0253000 294.5749  65.4251 13.40751441    08
Epoch (UTC): 19 October 2014 02:53:42
Eccentricity: 0.0253000
inclination: 63.6680°
perigee height: 917 km
apogee height: 1296 km
right ascension of ascending node: 354.6272°
argument of perigee: 294.5749°
revolutions per day: 13.40751441
mean anomaly at epoch: 65.4251°
orbit number at epoch: 0

The dashed part of the orbit path shows where the satellite is in the earth's shadow,  

DLR